• In Italy
  • List of Countries
  • For 7 days
  • Water Temperature
  • Satellite Maps
  • Weather Map
  • Weather Widgets
  • user-avatar
    Login

    Hourly Weather Armawir

    Today, 17 October, Tuesday

    Time Temperature Precipitation Wind Pressure Humidity
    00:00 +7°C° 0 mm 3 mps 686 mmHg 55%
    01:00 +7°C° 0 mm 3 mps 686 mmHg 56%
    02:00 +6°C° 0 mm 2 mps 686 mmHg 57%
    03:00 +5°C° 0 mm 6 mps 686 mmHg 56%
    04:00 +6°C° 0 mm 5 mps 686 mmHg 57%
    05:00 +6°C° 0 mm 4 mps 687 mmHg 59%
    06:00 +5°C° 0 mm 3 mps 687 mmHg 60%
    07:00 +8°C° 0 mm 3 mps 688 mmHg 55%
    08:00 +8°C° 0 mm 4 mps 688 mmHg 50%
    09:00 +11°C° 0 mm 4 mps 689 mmHg 45%
    10:00 +12°C° 0 mm 5 mps 689 mmHg 42%
    11:00 +14°C° 0 mm 5 mps 689 mmHg 39%
    12:00 +15°C° 0 mm 6 mps 689 mmHg 36%
    13:00 +16°C° 0 mm 6 mps 689 mmHg 35%
    14:00 +16°C° 0 mm 5 mps 689 mmHg 35%
    15:00 +17°C° 0 mm 5 mps 689 mmHg 35%
    16:00 +15°C° 0 mm 5 mps 689 mmHg 40%
    17:00 +14°C° 0 mm 4 mps 689 mmHg 45%
    18:00 +12°C° 0 mm 3 mps 689 mmHg 50%
    19:00 +12°C° 0 mm 3 mps 689 mmHg 53%
    20:00 +11°C° 0 mm 3 mps 689 mmHg 57%
    21:00 +10°C° 0 mm 2 mps 690 mmHg 61%
    22:00 +10°C° 0 mm 2 mps 690 mmHg 63%
    23:00 +9°C° 0 mm 2 mps 690 mmHg 65%

    Tomorrow, 18 October, Wednesday

    Time Temperature Precipitation Wind Pressure Humidity
    00:00 +9°C° 0 mm 2 mps 690 mmHg 67%
    01:00 +9°C° 0 mm 2 mps 690 mmHg 68%
    02:00 +9°C° 0 mm 2 mps 690 mmHg 70%
    03:00 +8°C° 0 mm 2 mps 690 mmHg 71%
    04:00 +9°C° 0 mm 1 mps 690 mmHg 72%
    05:00 +9°C° 0 mm 1 mps 690 mmHg 73%
    06:00 +9°C° 0 mm 1 mps 690 mmHg 74%
    07:00 +11°C° 0 mm 1 mps 690 mmHg 67%
    08:00 +13°C° 0 mm 1 mps 690 mmHg 60%
    09:00 +14°C° 0 mm 1 mps 691 mmHg 52%
    10:00 +16°C° 0 mm 1 mps 691 mmHg 48%
    11:00 +18°C° 0 mm 1 mps 691 mmHg 44%
    12:00 +19°C° 0 mm 1 mps 690 mmHg 39%
    13:00 +20°C° 0 mm 1 mps 690 mmHg 38%
    14:00 +19°C° 0 mm 2 mps 690 mmHg 37%
    15:00 +20°C° 0 mm 2 mps 690 mmHg 35%
    16:00 +18°C° 0 mm 2 mps 690 mmHg 40%
    17:00 +16°C° 0 mm 1 mps 690 mmHg 45%
    18:00 +14°C° 0 mm 1 mps 690 mmHg 50%
    19:00 +14°C° 0 mm 1 mps 690 mmHg 52%
    20:00 +14°C° 0 mm 1 mps 690 mmHg 55%
    21:00 +13°C° 0 mm 1 mps 691 mmHg 57%
    22:00 +13°C° 0 mm 1 mps 691 mmHg 59%
    23:00 +12°C° 0 mm 1 mps 691 mmHg 61%

    Day after tomorrow, 19 October, Thursday

    Time Temperature Precipitation Wind Pressure Humidity
    00:00 +12°C° 0 mm 1 mps 691 mmHg 64%
    01:00 +12°C° 0 mm 1 mps 691 mmHg 66%
    02:00 +11°C° 0 mm 1 mps 691 mmHg 68%
    03:00 +11°C° 0 mm 1 mps 691 mmHg 70%
    04:00 +11°C° 0 mm 1 mps 691 mmHg 71%
    05:00 +10°C° 0 mm 1 mps 690 mmHg 73%
    06:00 +10°C° 0 mm 1 mps 690 mmHg 74%
    07:00 +12°C° 0 mm 1 mps 691 mmHg 65%
    08:00 +14°C° 0 mm 1 mps 691 mmHg 55%
    09:00 +16°C° 0 mm 1 mps 692 mmHg 46%
    10:00 +18°C° 0 mm 1 mps 691 mmHg 41%
    11:00 +18°C° 0 mm 2 mps 691 mmHg 35%
    12:00 +19°C° 0 mm 2 mps 690 mmHg 30%
    13:00 +20°C° 0 mm 2 mps 690 mmHg 29%
    14:00 +20°C° 0 mm 2 mps 690 mmHg 28%
    15:00 +20°C° 0 mm 2 mps 690 mmHg 27%
    16:00 +18°C° 0 mm 2 mps 689 mmHg 31%
    17:00 +18°C° 0 mm 1 mps 689 mmHg 34%
    18:00 +15°C° 0 mm 1 mps 689 mmHg 38%
    19:00 +14°C° 0 mm 1 mps 689 mmHg 39%
    20:00 +14°C° 0 mm 1 mps 689 mmHg 41%
    21:00 +13°C° 0 mm 1 mps 689 mmHg 42%
    22:00 +13°C° 0 mm 1 mps 689 mmHg 43%
    23:00 +13°C° 0 mm 1 mps 689 mmHg 44%

    20 October, Friday

    Time Temperature Precipitation Wind Pressure Humidity
    00:00 +12°C° 0 mm 1 mps 689 mmHg 44%
    01:00 +12°C° 0 mm 1 mps 689 mmHg 44%
    02:00 +12°C° 0 mm 1 mps 688 mmHg 44%
    03:00 +10°C° 0 mm 0 mps 688 mmHg 44%
    04:00 +11°C° 0 mm 1 mps 688 mmHg 45%
    05:00 +11°C° 0 mm 1 mps 688 mmHg 45%
    06:00 +10°C° 0 mm 1 mps 688 mmHg 45%
    07:00 +12°C° 0 mm 1 mps 688 mmHg 40%
    08:00 +15°C° 0 mm 1 mps 689 mmHg 36%
    09:00 +16°C° 0 mm 0 mps 689 mmHg 31%
    10:00 +19°C° 0 mm 1 mps 689 mmHg 29%
    11:00 +20°C° 0 mm 1 mps 689 mmHg 27%
    12:00 +21°C° 0 mm 1 mps 688 mmHg 26%
    13:00 +21°C° 0 mm 1 mps 688 mmHg 25%
    14:00 +21°C° 0 mm 1 mps 688 mmHg 25%
    15:00 +22°C° 0 mm 1 mps 688 mmHg 24%
    16:00 +20°C° 0 mm 1 mps 688 mmHg 28%
    17:00 +18°C° 0 mm 1 mps 688 mmHg 32%
    18:00 +15°C° 0 mm 1 mps 687 mmHg 36%
    19:00 +15°C° 0 mm 1 mps 688 mmHg 37%
    20:00 +14°C° 0 mm 1 mps 688 mmHg 39%
    21:00 +14°C° 0 mm 1 mps 688 mmHg 40%
    22:00 +13°C° 0 mm 1 mps 688 mmHg 42%
    23:00 +13°C° 0 mm 1 mps 688 mmHg 43%

    21 October, Saturday

    Time Temperature Precipitation Wind Pressure Humidity
    00:00 +11°C° 0 mm 0 mps 688 mmHg 45%
    01:00 +12°C° 0 mm 1 mps 688 mmHg 48%
    02:00 +12°C° 0 mm 1 mps 688 mmHg 50%
    03:00 +11°C° 0 mm 1 mps 688 mmHg 53%
    04:00 +11°C° 0 mm 1 mps 688 mmHg 55%
    05:00 +11°C° 0 mm 1 mps 688 mmHg 57%
    06:00 +10°C° 0 mm 1 mps 688 mmHg 60%
    07:00 +12°C° 0 mm 1 mps 688 mmHg 53%
    08:00 +15°C° 0 mm 1 mps 689 mmHg 46%
    09:00 +18°C° 0 mm 1 mps 689 mmHg 39%
    10:00 +19°C° 0 mm 1 mps 689 mmHg 36%
    11:00 +20°C° 0 mm 1 mps 689 mmHg 33%
    12:00 +21°C° 0 mm 1 mps 689 mmHg 31%
    13:00 +21°C° 0 mm 1 mps 689 mmHg 30%
    14:00 +21°C° 0 mm 1 mps 688 mmHg 29%
    15:00 +20°C° 0 mm 2 mps 688 mmHg 28%
    16:00 +20°C° 0 mm 1 mps 688 mmHg 32%
    17:00 +18°C° 0 mm 1 mps 688 mmHg 36%
    18:00 +15°C° 0 mm 1 mps 688 mmHg 40%
    19:00 +14°C° 0 mm 1 mps 688 mmHg 42%
    20:00 +14°C° 0 mm 1 mps 688 mmHg 43%
    21:00 +13°C° 0 mm 1 mps 688 mmHg 45%
    22:00 +13°C° 0 mm 1 mps 688 mmHg 46%
    23:00 +12°C° 0 mm 1 mps 688 mmHg 47%

    22 October, Sunday

    Time Temperature Precipitation Wind Pressure Humidity
    00:00 +12°C° 0 mm 1 mps 688 mmHg 48%
    01:00 +12°C° 0 mm 1 mps 687 mmHg 49%
    02:00 +11°C° 0 mm 1 mps 687 mmHg 50%
    03:00 +11°C° 0 mm 1 mps 687 mmHg 50%
    04:00 +11°C° 0 mm 1 mps 687 mmHg 50%
    05:00 +10°C° 0 mm 1 mps 687 mmHg 50%
    06:00 +10°C° 0 mm 1 mps 687 mmHg 50%
    07:00 +12°C° 0 mm 1 mps 687 mmHg 44%
    08:00 +14°C° 0 mm 1 mps 687 mmHg 37%
    09:00 +16°C° 0 mm 1 mps 688 mmHg 31%
    10:00 +17°C° 0 mm 2 mps 687 mmHg 29%
    11:00 +18°C° 0 mm 2 mps 687 mmHg 27%
    12:00 +20°C° 0 mm 2 mps 687 mmHg 25%
    13:00 +20°C° 0 mm 2 mps 686 mmHg 25%
    14:00 +20°C° 0 mm 2 mps 686 mmHg 25%
    15:00 +20°C° 0 mm 2 mps 685 mmHg 24%
    16:00 +19°C° 0 mm 2 mps 685 mmHg 28%
    17:00 +17°C° 0 mm 2 mps 685 mmHg 31%
    18:00 +15°C° 0 mm 1 mps 685 mmHg 35%
    19:00 +15°C° 0 mm 1 mps 685 mmHg 35%
    20:00 +14°C° 0 mm 1 mps 685 mmHg 36%
    21:00 +13°C° 0 mm 1 mps 685 mmHg 37%
    22:00 +13°C° 0 mm 1 mps 685 mmHg 38%
    23:00 +13°C° 0 mm 1 mps 685 mmHg 39%
    Show more